Location: Unspecified
(35.7250°N, 0.0000°E)
Time: 11:11:36
(UTC+00:00)

Vanguard 1 - Pass Details

Date: 28 June 2019
Orbit: 655 x 3829 km, 34.2° (Epoch: 16 August)

Event Time Altitude Azimuth Distance (km) Brightness Sun altitude
Rises 03:02:35 0° 262° (W) 7,846 14.2 -17.3°
Reaches altitude 10° 03:08:18 10° 263° (W) 6,601 13.8 -16.5°
Maximum altitude 03:28:24 85° 178° (S) 2,441 12.0 -13.6°
Drops below altitude 10° 03:39:12 10° 91° (E) 3,837 13.8 -12.0°
Sets 03:41:37 0° 91° (E) 4,524 14.3 -11.6°
